User: anonymous   Login
Location: Sperry Observatory
(40.6664°N, 74.3236°W)
Time: 07:13:47
(UTC-04:00)
Language:

JAS-2 - Orbit

View from above orbital plane
View from above orbital plane
View from above satellite
View from above satellite

Ground track
Ground track

The orbit data is extracted from the following two-line orbital elements,

1 24278U 96046B   15143.53901965  .00000013  00000-0  46558-4 0  9996
2 24278 098.5383 115.6694 0351134 134.5954 343.2418 13.53051634926699
Epoch (UTC): 23 May 2015 12:56:11
Eccentricity: 0.0351134
inclination: 98.5383°
perigee height: 800 km
apogee height: 1322 km
right ascension of ascending node: 115.6694°
argument of perigee: 134.5954°
revolutions per day: 13.53051634
mean anomaly at epoch: 343.2418°
orbit number at epoch: 92669

The dashed part of the orbit path shows where the satellite is in the earth's shadow,  

DLR